Dewpoint
34 36 37 36 37 35 37 39 40 44 47 49 51 53 55 56 59 60 60 60 60 60 60 60 58 57 56 56 57 56 53 49 43 43 43 43 42 42 43 44 43 42 42
32 35 36 36 36 34 36 38 39 42 45 48 50 52 55 59 60 59 59 59 59 58 58 57 56 56 55 56 55 52 50 47 44 40 41 40 39 40 41 40 39 38 40
32 35 36 36 34 34 36 37 39 41 44 47 50 52 57 58 58 59 58 58 58 57 57 56 55 54 54 54 53 50 48 46 44 41 39 40 40 38 36 35 35 34 33
35 35 36 35 35 35 36 37 39 40 43 47 50 53 56 58 58 58 58 57 56 56 55 54 54 54 53 51 50 47 45 44 42 40 38 37 35 34 33 31 31 31 30
32 32 33 34 36 36 37 38 39 41 43 46 49 52 57 58 57 56 55 54 52 53 54 53 54 54 52 50 47 46 44 42 40 38 36 35 34 34 32 31 30 30 29
29 31 32 33 34 37 37 38 39 41 45 46 50 52 57 57 56 54 52 52 52 51 51 52 52 52 51 50 49 47 44 41 40 38 37 36 34 32 32 31 30 29 26
30 29 30 31 33 35 37 38 40 41 45 47 50 51 57 55 55 54 54 52 52 51 50 50 49 49 49 47 48 47 45 45 43 39 36 32 30 30 29 27 28 28 26
30 31 31 32 34 35 37 39 40 43 45 47 50 55 54 54 55 53 52 50 48 46 46 45 44 43 43 40 38 35 34 34 33 29 30 28 27 27 25 24 24 24 24
31 32 33 34 35 37 38 39 41 43 45 48 53 55 53 52 51 49 45 43 41 40 40 40 39 38 41 40 35 35 34 35 38 38 37 36 34 30 25 23 20 19 18
32 34 34 35 35 37 38 40 42 44 45 52 50 50 50 48 49 47 44 40 38 38 39 40 43 40 41 40 34 32 29 27 26 24 22 25 26 26 27 20 18 16 15
34 36 35 35 35 37 39 41 43 44 48 49 48 48 48 47 47 47 46 41 40 39 39 38 38 40 38 36 31 23 24 24 25 21 21 21 20 21 22 21 20 18 15
37 38 35 35 36 37 40 42 43 49 47 46 46 46 47 47 48 47 46 44 42 38 37 37 37 37 35 34 32 33 32 28 22 21 20 20 20 21 22 23 24 24 23
39 38 37 37 37 39 41 43 47 48 46 45 44 44 44 45 45 45 44 43 41 36 35 37 37 36 36 34 34 32 29 24 22 20 19 19 20 21 22 23 23 25 25
39 39 38 38 38 41 42 46 47 47 45 44 43 43 43 41 40 39 37 37 39 37 37 34 34 34 33 31 28 26 23 23 22 20 20 20 21 22 21 23 22 22 22
39 39 40 38 39 41 46 48 47 47 46 44 43 42 40 38 37 38 37 34 34 34 34 31 27 26 26 26 25 25 24 23 22 21 21 20 21 21 22 23 21 20 19
39 39 39 39 41 45 46 46 48 48 47 46 45 43 39 41 42 40 40 39 37 33 27 26 25 25 23 23 23 24 24 24 22 22 22 22 21 21 21 22 21 20 20
40 39 39 40 45 44 43 43 42 45 46 45 44 43 41 40 41 40 38 35 31 29 26 26 25 24 23 23 23 23 23 23 24 24 23 23 23 22 22 21 20 20 20
38 39 41 45 44 44 42 42 42 41 40 41 43 41 42 41 40 38 35 30 27 27 27 27 26 24 24 24 24 24 24 25 25 24 23 23 23 23 23 22 22 23 22
40 43 45 44 44 43 42 41 41 40 40 39 39 39 39 37 35 32 30 26 27 27 27 27 25 25 25 25 25 27 26 25 25 26 26 26 26 26 25 25 26 26 25
45 45 44 43 43 42 41 40 39 39 38 37 36 35 34 31 25 24 26 27 27 27 27 27 26 26 28 29 29 29 28 26 26 26 25 25 25 25 25 25 25 25 24
45 45 44 43 42 42 41 40 39 38 37 36 35 32 31 25 24 24 26 27 27 28 27 27 31 30 30 30 30 29 27 27 26 26 26 25 25 24 24 24 25 25 24
45 44 43 42 42 41 41 40 39 37 36 34 32 30 30 25 25 25 26 26 27 28 29 31 31 31 32 32 30 28 27 27 27 27 27 26 25 25 24 24 24 24 24
44 43 43 42 42 41 40 39 37 36 34 31 29 27 25 25 25 27 28 27 28 29 30 31 32 31 30 29 29 30 30 28 28 29 28 27 26 25 24 24 25 25 25
44 43 42 41 41 40 39 38 36 33 31 28 27 26 25 25 27 27 28 29 29 30 31 32 32 31 30 29 29 30 28 28 29 29 28 27 27 26 25 25 26 26 26
43 42 41 40 40 39 38 35 32 30 28 27 26 26 26 26 26 28 29 29 30 32 32 33 31 29 28 29 29 29 31 31 29 31 29 28 27 27 26 26 26 26 25
42 41 41 40 40 38 37 34 32 29 27 27 27 27 28 28 28 30 30 31 32 33 33 33 31 28 26 27 27 31 32 32 30 32 30 29 27 27 26 25 25 25 25
Lifted_Index
2 2 3 4 5 6 7 7 7 5 2 1 1 -0 -2 -3 -3 -4 -4 -4 -4 -4 -4 -3 -2 -2 -1 1 2 2 3 3 3 3 5 6 7 7 8 9 10 11 12
2 2 3 4 5 6 7 8 7 5 2 1 1 -0 -1 -3 -3 -3 -3 -3 -3 -3 -3 -2 -1 -1 -0 1 2 2 3 3 3 3 5 6 7 8 9 10 11 13 14
3 3 3 4 5 7 8 8 7 5 2 1 1 -0 -1 -2 -3 -3 -3 -2 -2 -2 -2 -1 -0 0 1 2 2 3 3 3 3 4 5 6 8 9 10 11 13 15 17
3 3 4 5 6 7 8 8 7 5 2 1 1 1 0 -1 -2 -2 -1 -1 -1 -1 -1 -0 0 1 2 2 2 3 3 3 4 5 5 6 8 9 10 12 15 17 18
4 4 5 6 7 8 8 8 7 5 2 1 1 2 1 0 -0 -1 -1 -0 -0 -0 0 1 1 2 2 2 2 3 3 4 5 6 6 7 8 10 12 14 16 17 17
6 6 6 7 7 8 8 8 7 5 2 1 2 2 1 0 0 0 0 1 1 1 2 2 2 2 2 2 3 3 4 5 6 7 7 9 10 13 15 16 16 17 16
6 7 7 7 8 9 9 9 7 5 3 2 1 1 1 0 1 1 1 2 2 2 2 2 2 2 3 3 4 5 6 7 8 9 11 12 14 16 16 17 17 17 17
7 7 7 8 8 9 9 9 7 4 3 1 1 0 0 1 1 2 2 3 3 3 2 3 3 3 4 5 5 6 8 10 12 13 15 16 16 17 17 17 17 17 17
7 7 8 8 9 9 9 8 6 4 2 1 0 0 1 2 2 3 3 3 3 3 3 4 4 5 5 6 7 9 11 13 15 16 16 17 17 17 17 17 17 17 17
7 8 8 8 9 9 8 6 4 3 2 1 1 1 2 2 3 3 3 3 4 4 4 5 6 7 8 9 11 12 14 15 16 16 16 16 17 17 17 18 18 18 17
8 8 9 9 9 9 7 5 3 2 2 1 1 2 2 3 3 3 3 4 4 5 6 7 9 10 11 13 14 15 15 15 15 15 15 16 16 17 18 18 18 18 18
8 9 9 9 9 8 6 4 3 2 1 1 2 3 3 3 3 4 4 4 5 6 8 10 12 14 15 15 16 15 15 15 15 15 15 15 16 17 18 19 19 18 18
8 9 9 9 8 6 5 4 3 2 2 2 3 4 3 3 4 4 5 5 6 8 11 14 15 16 16 16 15 15 15 15 15 14 15 16 17 18 18 18 18 17 17
8 8 9 8 7 6 5 5 4 3 3 3 4 4 3 3 4 5 5 7 9 12 14 16 16 16 16 15 15 15 15 15 15 15 15 16 17 17 17 17 16 16 16
7 8 8 7 6 6 6 5 5 4 4 4 4 4 3 3 4 5 6 9 12 14 15 16 16 15 15 15 15 15 15 15 15 15 15 15 16 17 16 16 16 15 15
7 7 7 6 6 7 7 6 6 5 5 4 3 3 3 4 5 7 9 12 14 15 15 15 15 15 15 15 15 15 15 15 15 15 14 15 15 16 16 16 15 15 15
7 6 6 6 7 7 8 7 7 6 5 4 3 3 3 5 7 9 12 14 15 15 15 14 14 15 15 15 15 15 15 15 15 14 14 14 14 15 15 15 15 15 15
6 6 7 8 8 9 8 8 7 6 5 4 3 4 5 7 9 12 14 15 15 15 15 15 15 15 15 15 15 15 15 14 14 14 14 14 14 14 14 14 14 14 14
6 7 8 9 9 9 8 8 7 6 4 4 5 6 7 10 12 14 15 15 15 15 15 15 15 15 15 15 15 15 14 14 14 14 14 14 14 14 14 14 14 14 14
7 8 8 9 8 8 7 6 5 4 4 5 7 8 10 12 14 15 16 15 15 15 15 15 15 15 15 15 15 15 15 14 14 14 15 15 15 14 14 14 14 13 13
8 8 8 8 7 6 5 4 4 4 5 7 9 11 13 14 15 16 16 16 15 15 16 15 15 16 16 16 15 15 15 14 15 15 15 15 15 15 15 14 14 14 14
8 8 7 6 5 5 4 4 4 5 7 10 12 14 15 15 15 16 16 16 16 16 16 16 16 16 16 16 16 15 15 15 15 15 15 15 15 15 15 15 15 14 14
7 7 6 5 5 4 4 4 5 7 10 12 14 15 16 16 16 16 16 16 16 16 17 17 16 16 17 17 16 16 16 16 16 16 16 16 16 16 15 15 15 15 15
6 6 5 5 4 4 4 4 6 8 11 13 14 15 16 16 16 16 16 16 16 16 17 17 17 17 17 17 17 17 17 17 17 17 17 16 16 16 16 15 15 15 15
6 5 5 4 4 4 4 5 7 10 13 14 15 15 16 16 16 16 16 16 16 17 17 17 17 17 17 17 17 17 17 17 17 17 17 17 17 16 16 16 16 15 15
6 5 5 4 4 4 4 5 8 11 13 14 15 15 16 16 16 16 16 16 16 16 17 17 17 17 17 17 17 17 17 17 18 18 17 17 17 16 16 16 16 16 16